DW6619 Weather Reports


Display with metric or nautical units.
time (UTC)temp
F
wind
direction
speed
MPH
gust
MPH
rain 1hr
in
rain 24hr
in
rain mn
in
humidity
%
barometer
mb
20260510144537 76 225 0.0 0.0 0.00 0.00 0.00 53 1013.4
20260510143008 74 276 0.0 0.0 0.00 0.00 0.00 59 1013.3
20260510141524 72 223 0.0 0.0 0.00 0.00 0.00 59 1013.1
20260510140019 71 224 0.0 0.0 0.00 0.00 0.00 65 1013.1
20260510134547 70 198 0.0 0.0 0.00 0.00 0.00 67 1013.1
20260510133031 67 360 0.0 0.0 0.00 0.00 0.00 73 1013.4
20260510131527 65 205 0.0 0.0 0.00 0.00 0.00 82 1013.2
20260510130050 62 217 0.0 0.0 0.00 0.00 0.00 86 1013.3
20260510124519 60 180 0.0 0.0 0.00 0.00 0.00 81 1013.4
20260510123028 59 194 0.0 0.0 0.00 0.00 0.00 82 1013.6
20260510121551 56 230 0.0 0.0 0.00 0.00 0.00 83 1013.4
20260510120021 54 230 0.0 0.0 0.00 0.00 0.00 83 1013.2
20260510114523 53 230 0.0 0.0 0.00 0.00 0.00 83 1013.0
20260510113019 52 230 0.0 0.0 0.00 0.00 0.00 84 1012.8
20260510111538 51 230 0.0 0.0 0.00 0.00 0.00 84 1012.5
20260510110015 50 230 0.0 0.0 0.00 0.00 0.00 84 1012.4
20260510104511 50 230 0.0 0.0 0.00 0.00 0.00 85 1012.1
20260510103009 49 190 0.0 0.0 0.00 0.00 0.00 85 1011.9
20260510101548 50 190 0.0 0.0 0.00 0.00 0.00 85 1011.7
20260510100010 51 190 0.0 0.0 0.00 0.00 0.00 85 1011.6
20260510094549 51 190 0.0 0.0 0.00 0.00 0.00 84 1011.6
20260510093028 50 190 0.0 0.0 0.00 0.00 0.00 85 1011.6
20260510091526 50 190 0.0 0.0 0.00 0.00 0.00 86 1011.6
20260510090023 50 190 0.0 0.0 0.00 0.00 0.00 86 1011.5
20260510084520 50 190 0.0 0.0 0.00 0.00 0.00 86 1011.5
20260510083009 50 190 0.0 0.0 0.00 0.00 0.00 86 1011.2
20260510081531 50 190 0.0 0.0 0.00 0.00 0.00 87 1011.1
20260510080031 51 190 0.0 0.0 0.00 0.00 0.00 86 1011.0
20260510074517 51 190 0.0 0.0 0.00 0.00 0.00 87 1010.9
20260510073010 51 190 0.0 0.0 0.00 0.00 0.00 87 1010.5
20260510071528 52 190 0.0 0.0 0.00 0.00 0.00 87 1010.6
20260510070025 52 190 0.0 0.0 0.00 0.00 0.00 87 1010.5
20260510064520 52 190 0.0 0.0 0.00 0.00 0.00 87 1010.1
20260510063018 53 190 0.0 0.0 0.00 0.00 0.00 87 1010.1
20260510061522 53 190 0.0 0.0 0.00 0.00 0.00 87 1010.1
20260510060017 54 190 0.0 0.0 0.00 0.00 0.00 87 1010.1
20260510054512 54 190 0.0 0.0 0.00 0.00 0.00 87 1010.2
20260510053011 55 190 0.0 0.0 0.00 0.00 0.00 87 1010.1
20260510051510 55 190 0.0 0.0 0.00 0.00 0.00 87 1010.2
20260510050024 56 190 0.0 0.0 0.00 0.00 0.00 87 1010.2
20260510044514 56 190 0.0 0.0 0.00 0.00 0.00 87 1010.1
20260510043012 56 190 0.0 0.0 0.00 0.00 0.00 87 1009.9
20260510041529 57 190 0.0 0.0 0.00 0.00 0.00 87 1010.0
20260510040023 57 190 0.0 0.0 0.00 0.00 0.00 86 1009.9
20260510034522 58 190 0.0 0.0 0.00 0.00 0.00 86 1009.8
20260510033020 58 190 0.0 0.0 0.00 0.00 0.00 85 1009.8
20260510031513 59 190 0.0 0.0 0.00 0.00 0.00 84 1009.8
20260510030028 59 190 0.0 0.0 0.00 0.00 0.00 83 1009.8
20260510024510 60 190 0.0 0.0 0.00 0.00 0.00 82 1009.7
20260510023010 61 190 0.0 0.0 0.00 0.00 0.00 81 1009.6
20260510021528 61 190 0.0 0.0 0.00 0.00 0.00 80 1009.5
20260510020009 62 190 0.0 0.0 0.00 0.00 0.00 80 1009.2
20260510014524 62 190 0.0 0.0 0.00 0.00 0.00 79 1009.1
20260510013044 62 190 0.0 0.0 0.00 0.00 0.00 78 1008.9
20260510011519 62 190 0.0 0.0 0.00 0.00 0.00 75 1008.6
20260510010010 63 190 0.0 0.0 0.00 0.00 0.00 72 1008.4
20260510004511 65 190 0.0 0.0 0.00 0.00 0.00 70 1008.2
20260510003030 66 190 0.0 0.0 0.00 0.00 0.00 67 1008.2
20260510001535 68 190 0.0 0.0 0.00 0.00 0.00 64 1008.1
20260510000023 69 190 0.0 0.0 0.00 0.00 0.00 62 1008.1
20260509234522 71 190 0.0 0.0 0.00 0.00 0.00 59 1007.9
20260509233018 72 190 0.0 0.0 0.00 0.00 0.00 57 1007.8
20260509231516 72 189 0.0 0.0 0.00 0.00 0.00 56 1007.8
20260509230018 73 227 0.0 0.0 0.00 0.00 0.00 55 1007.8
20260509224514 74 200 0.0 0.0 0.00 0.00 0.00 55 1007.7
20260509223011 74 195 0.0 0.0 0.00 0.00 0.00 54 1007.8
20260509221531 75 200 0.0 0.0 0.00 0.00 0.00 54 1007.9
20260509220028 75 194 0.0 0.0 0.00 0.00 0.00 52 1007.9
20260509214527 75 207 0.0 0.0 0.00 0.00 0.00 46 1007.8
20260509213048 76 183 0.0 0.0 0.00 0.00 0.00 45 1007.6
20260509211524 77 210 0.0 0.0 0.00 0.00 0.00 45 1007.5
20260509210044 79 180 2.0 7.0 0.00 0.00 0.00 43 1007.5
20260509204523 79 260 0.0 0.0 0.00 0.00 0.00 46 1007.4
20260509203017 79 188 0.0 0.0 0.00 0.00 0.00 46 1007.5
20260509201538 78 196 0.0 0.0 0.00 0.00 0.00 50 1007.5
20260509200010 77 173 0.0 5.0 0.00 0.00 0.00 49 1007.7
20260509194526 75 217 0.0 2.0 0.00 0.00 0.00 52 1008.0
20260509193019 73 203 0.0 0.0 0.00 0.00 0.00 58 1008.3
20260509191513 72 232 0.0 0.0 0.00 0.00 0.00 57 1008.7
20260509190014 71 277 0.0 0.0 0.00 0.00 0.00 57 1008.8